Weather History for DeKalb, IL

Change the Weather History Date:

Saturday, January 19, 2013

  Actual Average (KARR) Record (KARR)
Temperature  
Mean Temperature 34 °F 21 °F  
Max Temperature 44 °F 29 °F 55 °F (2006)
Min Temperature 21 °F 12 °F -6 °F (2008)
Degree Days  
Heating Degree Days 32 45  
Month to date heating degree days 835  
Since 1 July heating degree days 3484  
Cooling Degree Days 0 0  
Month to date cooling degree days 0  
Year to date cooling degree days 0  
Moisture  
Dew Point 30 °F    
Average Humidity 73    
Maximum Humidity 81    
Minimum Humidity 53    
Precipitation  
Precipitation 0.00 in 0.05 in 0.00 in (2014)
Month to date precipitation 0.80  
Year to date precipitation 0.80  
Sea Level Pressure  
Sea Level Pressure 29.83 in    
Wind  
Wind Speed 19 mph (WSW)    
Max Wind Speed 38 mph    
Max Gust Speed 48 mph    
Visibility 10 miles    
Events      
T = Trace of Precipitation, MM = Missing Value Source: NWS Daily Summary

Daily Weather History Graph

Daily Weather History Graph

Search for Another Location

Airport:

Trip Planner

Search our weather history database for the weather conditions in past years. The results will help you decide how hot, cold, wet, or windy it might be!

Date:

Astronomy

Jan. 19, 2013 Rise Set
Actual Time 7:17 AM CST 4:53 PM CST
Civil Twilight 6:47 AM CST 5:24 PM CST
Nautical Twilight 6:13 AM CST 5:58 PM CST
Astronomical Twilight 5:40 AM CST 6:31 PM CST
Moon 11:21 AM CST (1/19) 12:50 AM CST (1/19)
Length of Visible Light 10h 36m
Length of Day
9h 35m
First Quarter, 57% of the Moon is Illuminated
Jan 19
First Quarter
Jan 26
Full
Feb 3
Last Quarter
Feb 10
New
Feb 17
First Quarter

Hourly Weather History & Observations

Time (CST) Temp. Windchill Dew Point Humidity Pressure Visibility Wind Dir Wind Speed Gust Speed Precip Events Conditions
12:15 AM 37.6 °F 27.4 °F 28.4 °F 69% 29.90 in 10.0 mi SW 19.6 mph 26.5 mph N/A   Clear
12:35 AM 37.6 °F 27.7 °F 28.9 °F 71% 29.90 in 10.0 mi SW 18.4 mph 27.6 mph N/A   Clear
12:55 AM 37.6 °F 27.4 °F 29.1 °F 72% 29.90 in 10.0 mi SW 19.6 mph - N/A   Clear
1:15 AM 37.0 °F 27.0 °F 29.1 °F 73% 29.90 in 10.0 mi SW 18.4 mph 24.2 mph N/A   Clear
1:35 AM 36.9 °F 26.8 °F 29.1 °F 74% 29.91 in 10.0 mi SW 18.4 mph - N/A   Clear
1:55 AM 36.9 °F 27.5 °F 29.3 °F 74% 29.91 in 10.0 mi SW 16.1 mph - N/A   Clear
2:15 AM 36.9 °F 27.5 °F 29.3 °F 74% 29.91 in 10.0 mi SW 16.1 mph 23.0 mph N/A   Clear
2:35 AM 36.5 °F 27.0 °F 29.3 °F 75% 29.91 in 10.0 mi SW 16.1 mph - N/A   Clear
2:55 AM 36.5 °F 27.0 °F 29.7 °F 76% 29.91 in 10.0 mi SW 16.1 mph 23.0 mph N/A   Clear
3:15 AM 36.5 °F 27.0 °F 29.7 °F 76% 29.90 in 10.0 mi SW 16.1 mph - N/A   Clear
3:35 AM 36.5 °F 26.7 °F 29.3 °F 75% 29.90 in 10.0 mi SW 17.3 mph - N/A   Clear
3:55 AM 36.9 °F 26.5 °F 29.8 °F 76% 29.89 in 10.0 mi SW 19.6 mph - N/A   Clear
4:15 AM 36.9 °F 26.5 °F 29.5 °F 75% 29.89 in 10.0 mi SW 19.6 mph 25.3 mph N/A   Clear
4:35 AM 36.7 °F 27.6 °F 29.7 °F 76% 29.88 in 10.0 mi SW 15.0 mph - N/A   Clear
4:55 AM 36.5 °F 27.4 °F 29.7 °F 76% 29.88 in 10.0 mi SW 15.0 mph - N/A   Clear
5:15 AM 35.8 °F 26.5 °F 29.7 °F 78% 29.88 in 10.0 mi SW 15.0 mph - N/A   Scattered Clouds
5:35 AM 36.0 °F 27.1 °F 29.8 °F 78% 29.87 in 10.0 mi SSW 13.8 mph 17.3 mph N/A   Mostly Cloudy
5:55 AM 36.3 °F 27.5 °F 29.8 °F 77% 29.87 in 10.0 mi SSW 13.8 mph - N/A   Scattered Clouds
7:15 AM 35.1 °F 26.9 °F 29.7 °F 81% 29.86 in 10.0 mi SSW 11.5 mph - N/A   Clear
7:55 AM 35.1 °F 25.9 °F 29.7 °F 81% 29.85 in 10.0 mi SSW 13.8 mph - N/A   Clear
8:15 AM 35.1 °F 26.9 °F 29.8 °F 81% 29.86 in 10.0 mi SSW 11.5 mph - N/A   Clear
8:35 AM 35.2 °F 27.1 °F 29.8 °F 81% 29.85 in 10.0 mi SSW 11.5 mph 18.4 mph N/A   Clear
9:35 AM 36.5 °F 28.7 °F 30.9 °F 80% 29.85 in 10.0 mi SSW 11.5 mph - N/A   Clear
9:55 AM 36.9 °F 29.6 °F 31.1 °F 80% 29.85 in 10.0 mi SSW 10.4 mph - N/A   Clear
10:15 AM 38.3 °F 30.1 °F 32.0 °F 78% 29.85 in 10.0 mi SW 13.8 mph 18.4 mph N/A   Clear
10:35 AM 40.1 °F 31.3 °F 32.7 °F 75% 29.83 in 10.0 mi SW 17.3 mph 24.2 mph N/A   Clear
10:55 AM 40.8 °F 31.4 °F 32.5 °F 72% 29.81 in 10.0 mi SW 20.7 mph - N/A   Scattered Clouds
11:15 AM 40.6 °F 32.3 °F 32.9 °F 74% 29.79 in 10.0 mi SW 16.1 mph 24.2 mph N/A   Clear
11:35 AM 41.2 °F 31.9 °F 33.4 °F 74% 29.80 in 10.0 mi SW 20.7 mph 25.3 mph N/A   Scattered Clouds
11:55 AM 40.8 °F 32.3 °F 33.1 °F 74% 29.79 in 10.0 mi SW 17.3 mph 26.5 mph N/A   Clear
12:15 PM 40.5 °F 31.8 °F 33.8 °F 77% 29.76 in 10.0 mi SW 17.3 mph 24.2 mph N/A   Clear
12:35 PM 40.8 °F 32.9 °F 33.8 °F 76% 29.75 in 10.0 mi SW 15.0 mph - N/A   Clear
12:55 PM 40.8 °F 32.6 °F 33.8 °F 76% 29.75 in 10.0 mi SW 16.1 mph 20.7 mph N/A   Clear
1:15 PM 40.5 °F 32.8 °F 34.0 °F 78% 29.74 in 10.0 mi SSW 13.8 mph - N/A   Scattered Clouds
1:55 PM 42.6 °F 34.6 °F 35.2 °F 75% 29.72 in 10.0 mi SW 17.3 mph - N/A   Clear
2:15 PM 44.6 °F 36.4 °F 35.6 °F 71% 29.73 in 10.0 mi SW 20.7 mph - N/A   Clear
2:35 PM 44.1 °F 36.2 °F 35.6 °F 72% 29.72 in 10.0 mi SW 18.4 mph 21.9 mph N/A   Clear
2:55 PM 44.8 °F 36.6 °F 35.4 °F 70% 29.73 in 10.0 mi WSW 20.7 mph 28.8 mph N/A   Clear
3:15 PM 44.8 °F 37.4 °F 35.6 °F 70% 29.74 in 10.0 mi WSW 17.3 mph 23.0 mph N/A   Clear
3:35 PM 44.1 °F 35.7 °F 35.1 °F 71% 29.74 in 10.0 mi SW 20.7 mph - N/A   Clear
3:55 PM 43.7 °F 36.3 °F 34.9 °F 71% 29.74 in 10.0 mi SW 16.1 mph 23.0 mph N/A   Clear
4:15 PM 43.0 °F 35.1 °F 35.6 °F 75% 29.75 in 10.0 mi WSW 17.3 mph - N/A   Clear
4:35 PM 42.3 °F 34.4 °F 34.9 °F 75% 29.76 in 10.0 mi WSW 16.1 mph 19.6 mph N/A   Clear
4:55 PM 41.7 °F 34.1 °F 34.7 °F 76% 29.76 in 10.0 mi WSW 15.0 mph 24.2 mph N/A   Clear
5:15 PM 40.8 °F 31.7 °F 34.0 °F 77% 29.76 in 10.0 mi WSW 19.6 mph - N/A   Clear
5:35 PM 41.0 °F 31.9 °F 33.8 °F 76% 29.76 in 10.0 mi WSW 19.6 mph 24.2 mph N/A   Clear
5:55 PM 40.5 °F 31.8 °F 33.3 °F 75% 29.77 in 10.0 mi WSW 17.3 mph 26.5 mph N/A   Clear
6:15 PM 40.3 °F 31.3 °F 33.1 °F 75% 29.78 in 10.0 mi WSW 18.4 mph 25.3 mph N/A   Mostly Cloudy
6:35 PM 39.4 °F 30.4 °F 32.4 °F 76% 29.78 in 10.0 mi WSW 17.3 mph 23.0 mph N/A   Scattered Clouds
6:55 PM 38.8 °F 29.4 °F 32.0 °F 76% 29.78 in 10.0 mi WSW 18.4 mph 23.0 mph N/A   Clear
7:15 PM 38.7 °F 29.1 °F 32.0 °F 77% 29.78 in 10.0 mi WSW 18.4 mph 24.2 mph N/A   Clear
7:35 PM 37.9 °F 28.2 °F 31.8 °F 79% 29.79 in 10.0 mi West 18.4 mph 24.2 mph N/A   Clear
7:55 PM 38.3 °F 27.8 °F 31.8 °F 77% 29.80 in 10.0 mi West 21.9 mph 28.8 mph N/A   Clear
8:15 PM 38.3 °F 27.3 °F 30.7 °F 74% 29.80 in 10.0 mi West 24.2 mph 33.4 mph N/A   Scattered Clouds
8:35 PM 37.6 °F 25.9 °F 29.3 °F 72% 29.80 in 10.0 mi West 26.5 mph 34.5 mph N/A   Scattered Clouds
8:55 PM 37.2 °F 24.9 °F 29.3 °F 73% 29.81 in 10.0 mi West 28.8 mph 35.7 mph N/A   Scattered Clouds
9:15 PM 36.5 °F 24.2 °F 27.7 °F 70% 29.81 in 10.0 mi West 27.6 mph 41.4 mph N/A   Scattered Clouds
9:35 PM 35.1 °F 21.0 °F 19.6 °F 53% 29.82 in 10.0 mi West 34.5 mph 43.7 mph N/A   Clear
9:55 PM 33.1 °F 18.7 °F 20.3 °F 59% 29.84 in 10.0 mi West 32.2 mph 42.6 mph N/A   Clear
10:15 PM 28.9 °F 12.5 °F 18.7 °F 66% 29.87 in 10.0 mi West 34.5 mph 44.9 mph N/A   Clear
10:35 PM 27.1 °F 9.4 °F 13.1 °F 56% 29.88 in 10.0 mi West 38.0 mph 48.3 mph N/A   Clear
10:55 PM 25.9 °F 9.9 °F 12.0 °F 56% 29.90 in 10.0 mi WNW 27.6 mph 44.9 mph N/A   Clear
11:15 PM 23.9 °F 5.1 °F 10.0 °F 56% 29.92 in 10.0 mi WNW 36.8 mph 46.0 mph N/A   Clear
11:35 PM 23.0 °F 4.1 °F 8.8 °F 55% 29.93 in 10.0 mi WNW 35.7 mph 43.7 mph N/A   Clear
11:55 PM 21.4 °F 3.8 °F 9.1 °F 59% 29.95 in 10.0 mi WNW 27.6 mph 39.1 mph N/A   Clear